Location: Howard City Library
(37.4684°N, 96.2639°W)
Time: 21:58:57
(UTC+00:00)

USA 229 DEB - Pass Details

Date: 18 February 2020
Orbit: 988 x 1224 km, 63.4° (Epoch: 26 March)

Event Time Altitude Azimuth Distance (km) Brightness Sun altitude
Rises 00:28:44 0° 184° (S) 3,682 6.7 -5.2°
Reaches altitude 10° 00:31:29 10° 175° (S) 2,746 6.0 -5.7°
Maximum altitude 00:37:13 35° 112° (ESE) 1,574 4.2 -6.8°
Drops below altitude 10° 00:43:08 10° 49° (NE) 2,853 5.4 -8.0°
Enters shadow 00:45:50 - 42° (NE) 3,773 6.1 -8.5°
